This demonstration page uses our WeatherBlox Daily Observations layout. Learn more.

Left ArrowRight Arrow

Hourly Observations for April 6, 2019

Temp ( °F °C ) Dew Point ( °F °C ) Humidity (%) Winds ( mph kmh ) Pressure ( in mb ) Visibility ( mi km ) Precip ( " mm )
12:15 am 00:15 Mostly Clear with Nearby Thunderstorms 67 19.4 49 9.4 53 53 W 5 7 29.78 1008 10 16 0.00 0.00
12:30 am 00:30 Partly Cloudy with Thunderstorms 69 20.6 49 9.4 49 49 NW 12 19 29.77 1008 10 16 0.00 0.00
12:53 am 00:53 Mostly Cloudy 71 21.7 35 1.7 27 27 NNW 18 30 29.76 1008 10 16 0.00 0.03
1:53 am 01:53 Mostly Cloudy 69 20.6 33 0.6 26 26 W 22 35 29.75 1007 10 16 0.00 0.00
2:53 am 02:53 Clear 67 19.4 31 -0.6 26 26 WNW 17 28 29.72 1006 10 16 0.00 0.00
3:53 am 03:53 Clear 67 19.4 36 2.2 32 32 W 16 26 29.74 1007 10 16 0.00 0.00
4:53 am 04:53 Mostly Clear 63 17.2 37 2.8 38 38 WNW 7 11 29.70 1006 10 16 0.00 0.00
5:53 am 05:53 Clear 60 15.6 39 3.9 46 46 W 7 11 29.73 1007 10 16 0.00 0.00
6:53 am 06:53 Clear 57 13.9 38 3.3 49 49 WSW 9 15 29.76 1008 10 16 0.00 0.00
7:53 am 07:53 Sunny 54 12.2 38 3.3 55 55 W 9 15 29.79 1009 10 16 0.00 0.00
8:53 am 08:53 Sunny 62 16.7 38 3.3 41 41 W 12 19 29.81 1010 10 16 0.00 0.00
9:53 am 09:53 Sunny 69 20.6 33 0.6 26 26 W 16 26 29.81 1010 10 16 0.00 0.00
10:53 am 10:53 Sunny 74 23.3 30 -1.1 20 20 W 15 24 29.79 1009 10 16 0.00 0.00
11:53 am 11:53 Sunny 78 25.6 22 -5.6 12 12 W 15 24 29.77 1008 10 16 0.00 0.00
12:53 pm 12:53 Sunny 79 26.1 22 -5.6 12 12 W 12 19 29.76 1008 10 16 0.00 0.00
1:53 pm 13:53 Sunny 79 26.1 19 -7.2 10 10 SW 9 15 29.75 1007 10 16 0.00 0.00
2:53 pm 14:53 Sunny 79 26.1 19 -7.2 10 10 W 9 15 29.72 1007 10 16 0.00 0.00
3:53 pm 15:53 Sunny 81 27.2 20 -6.7 10 10 W 8 13 29.70 1006 10 16 0.00 0.00
4:53 pm 16:53 Sunny 80 26.7 17 -8.3 9 9 W 10 17 29.70 1006 10 16 0.00 0.00
5:53 pm 17:53 Sunny 79 26.1 18 -7.8 10 10 W 12 19 29.70 1006 10 16 0.00 0.00
6:53 pm 18:53 Sunny 79 26.1 18 -7.8 10 10 W 10 17 29.72 1006 10 16 0.00 0.00
7:53 pm 19:53 Sunny 77 25 20 -6.7 12 12 W 9 15 29.74 1007 10 16 0.00 0.00
8:53 pm 20:53 Clear 69 20.6 21 -6.1 16 16 W 8 13 29.76 1008 10 16 0.00 0.00
9:53 pm 21:53 Clear 64 17.8 22 -5.6 20 20 W 9 15 29.78 1009 10 16 0.00 0.00
10:53 pm 22:53 Clear 63 17.2 23 -5 22 22 W 6 9 29.80 1009 10 16 0.00 0.00
11:53 pm 23:53 Clear 59 15 25 -3.9 27 27 W 10 17 29.81 1009 10 16 0.00 0.00

Powered by AerisWeather